Weather History for Evansville, IN

Change the Weather History Date:

Friday, February 8, 2013

  Actual Average Record
Temperature  
Mean Temperature 4 °C 2 °C  
Max Temperature 8 °C 7 °C 22 °C (1925)
Min Temperature 1 °C -3 °C -20 °C (1985)
Degree Days  
Heating Degree Days 25 30  
Month to date heating degree days 247 248  
Since 1 July heating degree days 2812 3027  
Cooling Degree Days 0 0  
Month to date cooling degree days 0 0  
Year to date cooling degree days 0 0  
Moisture  
Dew Point -2 °C    
Average Humidity 77    
Maximum Humidity 89    
Minimum Humidity 64    
Precipitation  
Precipitation 0.25 mm 2.79 mm 4.14 mm (1950)
Month to date precipitation 0.32 0.94  
Year to date precipitation 7.09 4.04  
Snow  
Snow 0.00 cm 0.51 cm 7.11 cm (1979)
Month to date snowfall 0.8 1.2  
Since 1 July snowfall 11.8 8.1  
Snow Depth 0.00 cm    
Sea Level Pressure  
Sea Level Pressure 1024 hPa    
Wind  
Wind Speed 18 km/h (North)    
Max Wind Speed 29 km/h    
Max Gust Speed 47 km/h    
Visibility 16 kilometers    
Events Rain    
T = Trace of Precipitation, MM = Missing Value Source: NWS Daily Summary

Daily Weather History Graph

Daily Weather History Graph

Search for Another Location

Airport:

Trip Planner

Search our weather history database for the weather conditions in past years. The results will help you decide how hot, cold, wet, or windy it might be!

Date:

Astronomy

Feb. 08, 2013 Rise Set
Actual Time 6:47 AM CST 5:21 PM CST
Civil Twilight 6:20 AM CST 5:48 PM CST
Nautical Twilight 5:49 AM CST 6:19 PM CST
Astronomical Twilight 5:18 AM CST 6:50 PM CST
Moon 5:15 AM CST (2/8) 3:54 PM CST (2/8)
Length of Visible Light 11h 28m
Length of Day
10h 33m
Waning Crescent, 3% of the Moon is Illuminated
Feb 8
Waning Crescent
Feb 10
New
Feb 17
First Quarter
Feb 25
Full
Mar 4
Last Quarter

Hourly Weather History & Observations

Time (CST) Temp. Windchill Dew Point Humidity Pressure Visibility Wind Dir Wind Speed Gust Speed Precip Events Conditions
12:15 AM 8.0 °C 4.8 °C 6.0 °C 87% 1013.4 hPa 16.1 km NW 20.4 km/h / 5.7 m/s - 0.0 mm Rain Light Rain
12:54 AM 6.7 °C 3.0 °C 5.0 °C 89% 1013.9 hPa 14.5 km NNW 22.2 km/h / 6.2 m/s 31.5 km/h / 8.7 m/s 0.3 mm Rain Light Rain
1:54 AM 5.6 °C 1.2 °C 2.2 °C 79% 1015.2 hPa 16.1 km NNW 25.9 km/h / 7.2 m/s 46.3 km/h / 12.9 m/s 0.0 mm   Overcast
2:54 AM 5.0 °C 0.6 °C 1.7 °C 79% 1015.6 hPa 16.1 km NNW 24.1 km/h / 6.7 m/s 35.2 km/h / 9.8 m/s N/A   Overcast
3:54 AM 4.4 °C 0.1 °C 1.7 °C 83% 1016.7 hPa 16.1 km NNW 22.2 km/h / 6.2 m/s 35.2 km/h / 9.8 m/s N/A   Overcast
5:54 AM 3.0 °C -1.7 °C -1.0 °C 75% 1019.2 hPa 16.1 km NNW 22.2 km/h / 6.2 m/s 35.2 km/h / 9.8 m/s N/A   Overcast
6:11 AM 3.0 °C -1.2 °C -1.0 °C 75% 1019.5 hPa 16.1 km North 18.5 km/h / 5.1 m/s 33.3 km/h / 9.3 m/s N/A   Overcast
6:54 AM 2.8 °C -2.0 °C -1.1 °C 76% 1020.4 hPa 16.1 km NNW 22.2 km/h / 6.2 m/s 38.9 km/h / 10.8 m/s N/A   Overcast
7:54 AM 2.2 °C -1.6 °C -1.7 °C 76% 1021.8 hPa 16.1 km NNW 14.8 km/h / 4.1 m/s 33.3 km/h / 9.3 m/s N/A   Overcast
8:54 AM 2.2 °C -2.5 °C -1.7 °C 76% 1023.3 hPa 16.1 km NNW 20.4 km/h / 5.7 m/s 33.3 km/h / 9.3 m/s N/A   Overcast
9:54 AM 2.2 °C -2.5 °C -2.2 °C 73% 1024.0 hPa 16.1 km NNW 20.4 km/h / 5.7 m/s 35.2 km/h / 9.8 m/s N/A   Overcast
10:54 AM 2.2 °C -2.2 °C -2.2 °C 73% 1025.0 hPa 16.1 km NNW 18.5 km/h / 5.1 m/s 37.0 km/h / 10.3 m/s N/A   Overcast
11:54 AM 2.2 °C -3.0 °C -2.8 °C 70% 1025.3 hPa 16.1 km NNW 24.1 km/h / 6.7 m/s 31.5 km/h / 8.7 m/s N/A   Overcast
12:54 PM 2.8 °C -1.2 °C -2.8 °C 67% 1025.4 hPa 16.1 km NNW 16.7 km/h / 4.6 m/s 29.6 km/h / 8.2 m/s N/A   Overcast
1:54 PM 2.2 °C -2.0 °C -3.3 °C 67% 1025.7 hPa 16.1 km NNW 16.7 km/h / 4.6 m/s - N/A   Overcast
3:54 PM 2.2 °C -2.2 °C -3.3 °C 67% 1026.7 hPa 16.1 km North 18.5 km/h / 5.1 m/s - N/A   Overcast
4:54 PM 1.7 °C -2.3 °C -3.3 °C 70% 1027.4 hPa 16.1 km North 14.8 km/h / 4.1 m/s 29.6 km/h / 8.2 m/s N/A   Overcast
5:54 PM 1.1 °C -4.1 °C -3.9 °C 70% 1028.1 hPa 16.1 km NNE 22.2 km/h / 6.2 m/s - N/A   Overcast
6:54 PM 1.1 °C -3.6 °C -3.9 °C 70% 1028.8 hPa 16.1 km North 18.5 km/h / 5.1 m/s - N/A   Overcast
7:54 PM 1.1 °C -1.2 °C -3.3 °C 73% 1028.4 hPa 16.1 km NE 7.4 km/h / 2.1 m/s - N/A   Overcast
8:54 PM 1.1 °C -2.6 °C -3.3 °C 73% 1028.7 hPa 16.1 km NNE 13.0 km/h / 3.6 m/s - N/A   Overcast
9:54 PM 1.1 °C -2.6 °C -3.9 °C 70% 1029.2 hPa 16.1 km NNE 13.0 km/h / 3.6 m/s - N/A   Overcast
10:54 PM 1.1 °C -1.2 °C -3.3 °C 73% 1029.1 hPa 16.1 km ENE 7.4 km/h / 2.1 m/s - N/A   Overcast
11:54 PM 1.1 °C -1.8 °C -3.9 °C 70% 1029.2 hPa 16.1 km ENE 9.3 km/h / 2.6 m/s - N/A   Overcast